Location: Three Oaks Observatory
(31.1535°N, 83.5955°W)
Time: 23:37:30
(UTC-05:00)

NO-84 - Pass Details

Date: 28 October 2019
Orbit: 331 x 505 km, 55.0° (Epoch: 05 November)

Event Time Altitude Azimuth Distance (km) Brightness Sun altitude
Rises 20:33:36 0° 242° (WSW) 2,290 ? -22.8°
Reaches altitude 10° 20:35:46 10° 254° (WSW) 1,469 ? -23.3°
Maximum altitude 20:38:41 29° 316° (NW) 820 ? -23.9°
Enters shadow 20:38:53 28° 324° (NW) 827 ? -24.0°
